Date,TemperatureHighF,TemperatureAvgF,TemperatureLowF,DewpointHighF,DewpointAvgF,DewpointLowF,HumidityHigh,HumidityAvg,HumidityLow,PressureMaxIn,PressureMinIn,WindSpeedMaxMPH,WindSpeedAvgMPH,GustSpeedMaxMPH,PrecipitationSumIn
2013-1-1,36.4,35.7,34.1,18.1,15.8,14.6,49,44,42,29.83,29.56,19,4,19,0.00
2013-1-2,35.9,35.9,35.9,15.6,15.6,15.6,43,43,43,29.56,29.56,2,2,19,0.00
2013-1-3,35.9,35.9,35.9,15.6,15.6,15.6,43,43,43,29.56,29.56,2,2,19,0.00
2013-1-4,35.9,35.9,35.9,15.6,15.6,15.6,43,43,43,29.56,29.56,2,2,19,0.00
2013-1-5,35.9,35.9,35.9,15.6,15.6,15.6,43,43,43,29.56,29.56,2,2,19,0.00
2013-1-6,35.9,35.9,35.9,15.6,15.6,15.6,43,43,43,29.56,29.56,2,2,19,0.00
2013-1-7,35.9,35.9,35.9,15.6,15.6,15.6,43,43,43,29.56,29.56,2,2,19,0.00
2013-1-8,35.9,32.4,-0.5,15.6,13.8,-3.9,89,47,43,30.20,29.56,2,2,19,0.00
2013-1-9,35.9,10.5,1.5,15.6,4.8,-1.7,98,80,43,30.35,29.56,7,1,19,0.00
2013-1-10,16.7,12.4,8.9,14.8,8.7,5.3,93,85,75,30.24,30.05,6,0,6,0.00
2013-1-11,22.2,15.9,12.2,16.5,12.8,9.5,93,87,74,30.33,30.02,7,0,7,0.00
2013-1-12,32.9,25.3,13.4,24.6,21.1,11.5,93,85,69,30.33,29.86,13,2,13,0.00
2013-1-13,38.9,35.7,31.6,33.4,30.2,23.9,97,81,68,29.88,29.63,12,2,12,0.12
2013-1-14,40.7,35.5,25.4,34.7,32.2,23.9,97,88,74,29.93,29.32,12,2,12,0.16
2013-1-15,25.4,13.6,10.0,24.2,11.2,-50.5,95,90,88,30.37,29.93,10,1,10,0.00
2013-1-16,15.8,13.9,12.0,11.8,8.9,7.0,92,80,73,30.37,29.98,4,0,5,0.00
2013-1-17,13.1,4.7,-3.9,9.9,-0.4,-10.6,87,79,72,30.32,29.94,12,2,12,0.00
2013-1-18,3.9,-2.2,-6.6,-8.2,-11.0,-14.0,74,66,53,30.62,30.32,10,1,10,0.00
2013-1-19,10.1,7.7,3.8,-2.7,-7.0,-9.9,59,50,45,30.62,30.26,18,2,18,0.00
2013-1-20,10.5,8.7,6.9,7.5,3.8,-4.6,90,81,56,30.26,30.18,8,0,8,0.00
2013-1-21,9.0,7.6,6.1,6.0,4.4,1.8,92,86,81,30.31,30.19,7,0,7,0.00
2013-1-22,15.2,10.6,8.0,8.4,5.4,3.7,82,79,71,30.19,29.89,6,0,6,0.00
2013-1-23,10.3,7.8,3.8,5.1,2.0,-2.9,81,77,72,29.90,29.76,6,0,6,0.00
2013-1-24,3.8,-1.2,-7.7,0.0,-4.8,-12.0,82,48,68,30.01,29.81,2,0,2,0.00
2013-1-25,0.0,-5.9,-13.4,0.0,-11.3,-22.4,72,34,57,30.19,30.01,6,0,6,0.00
2013-1-26,-13.6,-19.6,-24.1,-18.8,-24.8,-29.2,83,76,64,30.36,30.19,4,0,4,0.00
2013-1-27,-23.7,-26.2,-29.5,-28.3,-31.3,-34.7,79,76,74,30.82,30.36,2,0,2,0.00
2013-1-28,-2.8,-11.9,-29.2,-14.0,-20.3,-34.6,92,66,55,30.85,30.27,16,2,16,0.00
2013-1-29,-2.2,-5.4,-8.1,-11.3,-15.8,-19.6,77,60,51,30.27,30.07,13,1,13,0.00
2013-1-30,13.9,3.2,-6.2,7.9,-1.8,-12.1,82,74,74,30.14,29.87,7,1,7,0.00
2013-1-31,9.4,7.3,5.5,6.8,3.9,0.8,92,86,79,30.28,29.89,7,1,7,0.00
2013-2-1,18.1,11.9,6.9,12.6,7.5,4.3,91,83,69,30.33,30.04,9,1,9,0.00
2013-2-2,28.4,19.8,13.5,15.0,9.7,5.3,73,65,54,30.04,29.65,6,0,6,0.00
2013-2-3,24.7,20.5,12.1,16.9,13.7,8.9,89,75,65,29.66,29.45,5,0,5,0.00
2013-2-4,23.1,16.1,11.2,20.9,13.7,8.4,100,90,86,29.81,29.60,4,0,4,0.00
2013-2-5,18.2,11.4,0.0,16.4,9.5,0.0,94,80,85,29.79,29.74,7,0,7,0.00
2013-2-6,10.3,4.8,-0.2,7.9,2.2,-3.1,99,88,87,29.88,29.74,2,0,2,0.00
2013-2-7,20.7,11.4,1.1,16.8,8.3,-1.9,92,87,77,29.86,29.47,4,0,4,0.00
2013-2-8,15.6,11.3,10.1,12.7,8.9,7.5,92,90,87,29.96,29.48,2,0,2,0.00
2013-2-9,33.9,22.5,10.8,24.1,15.8,8.4,90,76,62,29.96,29.15,18,3,18,0.00
2013-2-10,36.6,28.4,10.9,28.0,21.4,7.4,92,76,63,29.61,29.08,15,2,15,0.03
2013-2-11,17.2,15.4,14.4,15.3,13.2,12.1,93,91,90,29.86,29.61,5,0,5,0.00
2013-2-12,20.9,17.0,0.0,15.2,13.7,0.0,93,86,73,29.94,29.86,7,0,7,0.00
2013-2-13,27.9,22.8,0.0,16.6,12.8,0.0,76,58,58,29.93,29.88,8,1,8,0.00
2013-2-14,29.6,27.4,23.7,21.0,12.6,10.0,89,54,44,29.89,29.47,15,3,15,0.00
2013-2-15,23.9,7.8,-1.9,21.6,4.8,-5.3,92,87,83,30.20,29.56,9,1,9,0.00
2013-2-16,7.2,0.3,-3.1,1.2,-3.7,-6.7,87,83,70,30.27,30.06,5,0,5,0.00
2013-2-17,8.1,-3.1,-9.8,0.6,-7.7,-13.5,86,81,67,30.34,29.98,6,0,6,0.00
2013-2-18,-9.1,-12.3,-15.0,-13.1,-16.3,-19.1,83,82,81,30.45,30.34,7,0,7,0.00
2013-2-19,0.4,-7.1,-13.3,-7.6,-12.7,-17.7,83,76,64,30.34,29.78,12,1,12,0.00
2013-2-20,5.9,-0.4,-4.5,-3.7,-7.4,-11.3,85,72,60,29.78,29.56,6,0,6,0.00
2013-2-21,2.4,-1.2,-5.4,-3.2,-5.5,-9.3,85,81,72,29.61,29.51,4,0,4,0.00
2013-2-22,-4.6,-6.8,-8.2,-9.3,-10.7,-12.1,85,82,76,29.80,29.54,7,0,7,0.00
2013-2-23,13.1,4.1,-4.6,6.1,-2.6,-10.4,80,73,62,29.74,29.49,10,0,10,0.00
2013-2-24,15.2,8.9,2.5,7.0,2.0,-3.5,92,73,56,29.84,29.51,4,0,6,0.00
2013-2-25,31.8,22.0,10.1,14.6,10.5,3.1,80,62,46,29.90,29.84,8,1,8,0.09
2013-2-26,29.0,25.5,23.3,10.9,8.6,4.4,56,48,37,29.89,29.60,14,2,14,0.00
2013-2-27,31.9,27.4,24.1,13.8,11.8,10.4,57,51,45,29.60,29.45,14,3,14,0.00
2013-2-28,35.0,28.5,22.7,13.2,10.7,8.7,64,47,35,29.58,29.50,8,1,8,0.01
2013-3-1,23.0,10.0,5.5,12.4,5.9,1.6,92,84,63,30.15,29.58,7,1,7,0.00
2013-3-2,21.2,14.0,8.2,14.6,10.3,0.0,90,85,72,30.30,30.15,6,0,6,0.00
2013-3-3,29.3,21.0,14.0,15.4,12.9,10.0,92,71,53,30.54,30.30,5,0,5,0.00
2013-3-4,33.4,26.8,20.4,14.9,12.2,10.3,66,54,43,30.58,30.44,5,0,5,0.00
2013-3-7,38.4,33.3,25.1,17.7,16.0,12.0,64,49,41,29.98,29.54,8,4,22,0.00
2013-3-8,43.4,38.6,35.6,23.2,20.2,16.5,56,47,42,29.74,29.61,5,2,14,0.03
2013-3-9,37.3,31.3,22.2,25.0,22.7,16.1,93,71,56,30.12,29.74,2,1,10,0.02
2013-3-10,25.7,21.4,17.9,23.7,16.7,11.1,94,82,63,30.41,30.13,3,1,9,0.00
2013-3-11,22.6,17.5,13.7,13.2,11.0,6.6,87,76,65,30.71,30.43,4,1,17,0.00
2013-3-12,23.2,16.1,11.3,6.6,1.8,-6.0,72,54,34,30.72,30.50,2,1,7,0.00
2013-3-13,14.9,7.5,-4.6,-1.2,-8.6,-18.2,55,47,36,30.49,30.37,29,4,29,0.01
2013-3-14,15.3,4.6,-5.5,-6.8,-12.8,-19.5,53,44,34,30.38,30.30,27,6,27,0.00
2013-3-15,20.4,11.7,7.0,-7.2,-10.8,-14.0,43,35,25,30.34,30.10,18,4,18,0.00
2013-3-16,24.0,15.5,9.4,3.4,-3.2,-9.4,50,43,37,30.33,30.14,13,2,13,0.00
2013-3-17,17.5,12.2,4.6,1.2,-1.2,-4.2,67,54,47,30.43,30.29,5,0,5,0.00
2013-3-18,16.5,9.9,4.1,1.8,-1.6,-6.0,80,60,45,30.29,30.16,6,1,8,0.00
2013-3-19,15.6,8.6,4.3,-1.0,-5.1,-10.2,65,54,39,30.28,30.18,8,1,8,0.00
2013-3-20,7.8,2.6,-4.6,1.6,-6.6,-12.4,83,65,50,30.19,30.10,10,1,10,0.00
2013-3-21,17.7,9.3,2.2,10.9,2.7,-1.0,88,76,49,30.28,30.15,11,3,11,0.00
2013-3-22,28.4,20.7,13.9,13.8,4.6,-1.2,61,49,41,30.19,29.83,16,4,16,0.00
2013-3-23,25.3,2.6,-4.5,16.8,-3.8,-11.3,89,74,56,30.22,29.83,12,2,12,0.00
2013-3-24,11.1,5.1,-0.9,3.8,-3.4,-10.3,86,68,54,30.21,29.91,6,0,6,0.00
2013-3-25,4.8,2.1,-0.8,1.8,-1.4,-4.6,87,85,80,29.93,29.78,8,1,12,0.00
2013-3-26,2.2,-3.1,-6.7,-4.6,-9.0,-12.8,95,76,57,30.38,29.93,14,2,14,0.00
2013-3-27,8.9,-0.5,-9.8,-3.1,-9.2,-14.4,92,67,52,30.44,30.31,9,1,9,0.00
2013-3-28,29.8,19.2,8.9,11.4,2.6,-3.7,60,48,37,30.31,30.04,9,1,9,0.10
2013-3-29,41.2,32.2,25.6,17.9,13.7,9.2,53,46,36,30.04,29.97,8,1,9,0.03
2013-3-30,36.6,30.2,21.4,17.7,15.4,10.3,69,54,44,30.32,30.02,7,1,7,0.00
2013-3-31,36.8,31.7,27.6,27.3,22.0,15.1,90,68,52,30.36,30.25,7,1,7,0.00
2013-4-1,34.5,29.7,25.0,27.0,22.7,15.4,94,76,56,30.25,30.17,14,1,14,0.01
2013-4-2,33.6,26.6,21.7,18.1,15.0,12.9,71,61,50,30.32,30.19,11,1,11,0.00
2013-4-3,29.4,22.7,15.5,13.2,7.0,-1.8,65,51,35,30.59,30.31,22,3,25,0.00
2013-4-4,27.2,18.8,14.3,0.3,-2.3,-5.3,52,40,25,30.60,30.22,22,5,22,0.00
2013-4-5,14.8,10.0,2.8,1.0,-6.3,-9.7,58,47,37,30.22,29.87,24,6,24,0.00
2013-4-6,17.9,8.9,1.2,-2.2,-6.2,-9.9,59,50,38,29.87,29.75,11,1,11,0.00
2013-4-7,6.8,3.7,0.3,4.1,-1.4,-6.7,96,79,55,30.07,29.78,6,0,6,0.00
2013-4-8,11.4,5.3,0.6,6.9,1.9,-2.6,89,86,80,30.09,29.62,8,1,8,0.00
2013-4-9,8.8,6.2,4.2,6.0,3.3,1.2,98,88,86,29.62,29.29,10,1,10,0.00
2013-4-10,10.6,4.9,-0.4,2.4,-1.4,-5.0,87,75,57,30.11,29.59,16,2,16,0.00
2013-4-11,10.8,4.4,-1.7,1.0,-3.6,-7.4,80,69,57,30.41,30.11,8,1,8,0.00
2013-4-12,21.5,11.7,2.3,6.3,1.6,-1.7,88,65,42,30.51,30.41,9,1,9,0.07
2013-4-13,23.6,15.9,7.3,4.3,1.4,-1.7,67,53,41,30.62,30.50,9,1,9,0.00
2013-4-14,25.0,18.6,11.5,17.5,8.5,-0.4,79,65,46,30.70,30.62,8,1,8,0.00
2013-4-15,27.0,22.5,19.6,15.0,7.1,3.9,78,52,39,30.67,30.58,17,4,17,0.00
2013-4-16,26.0,20.6,16.1,13.5,6.9,3.3,71,55,46,30.58,30.38,9,2,16,0.00
2013-4-17,26.5,22.1,16.3,10.3,8.2,5.9,64,55,45,30.52,30.38,20,4,20,0.00
2013-4-18,28.2,22.3,16.2,8.5,5.4,2.2,57,48,37,30.57,30.52,19,4,19,0.00
2013-4-19,38.0,28.0,17.1,12.7,7.9,1.3,63,44,24,30.62,30.54,11,2,17,0.01
2013-4-20,41.1,33.6,27.4,13.4,9.1,6.8,44,36,26,30.55,30.40,9,1,9,0.00
2013-4-21,41.7,33.9,24.7,14.0,11.2,5.9,56,39,27,30.49,30.42,10,1,10,0.00
2013-4-22,43.7,35.8,25.5,15.7,11.7,6.3,58,38,28,30.59,30.49,10,1,10,0.00
2013-4-23,46.1,38.0,31.3,19.3,14.3,11.4,48,38,26,30.52,30.29,16,2,16,0.00
2013-4-24,36.2,31.0,27.7,28.5,24.4,14.5,96,78,41,30.29,30.08,18,3,18,0.08
2013-4-25,30.5,24.0,17.0,18.8,3.0,-4.9,69,40,31,30.22,30.11,17,2,17,0.00
2013-4-26,28.1,22.0,15.8,21.9,11.4,4.7,93,64,47,30.14,29.75,8,1,8,0.00
2013-4-27,25.2,22.0,15.1,20.5,5.8,-9.8,93,53,22,30.27,29.80,19,3,19,0.00
2013-4-28,32.7,21.9,12.6,15.8,2.3,-6.9,55,42,34,30.31,30.24,12,1,12,0.00
2013-4-29,29.1,25.8,21.3,25.5,19.2,13.1,95,76,55,30.27,30.21,12,2,12,0.01
2013-4-30,32.9,27.8,24.7,27.4,24.9,21.2,96,89,71,30.21,29.99,9,1,9,0.14
2013-5-1,33.9,27.1,20.3,25.0,20.2,11.6,92,76,58,29.99,29.78,12,2,12,0.09
2013-5-2,34.9,26.1,17.5,22.5,17.5,11.7,92,70,57,30.06,29.83,10,1,10,0.01
2013-5-3,37.6,31.5,25.3,31.6,27.1,19.9,95,84,64,30.06,29.96,10,1,10,0.04
2013-5-4,32.0,25.2,20.0,24.3,20.7,16.5,96,84,59,30.12,30.01,7,1,7,0.00
2013-5-5,36.9,29.9,23.1,20.0,14.6,9.1,82,55,33,30.26,30.12,14,2,14,0.01
2013-5-6,41.3,32.9,24.8,17.0,12.8,7.6,59,44,28,30.32,30.24,14,2,14,0.00
2013-5-7,42.2,35.3,28.7,20.7,16.6,12.8,62,47,31,30.37,30.32,13,1,15,0.00
2013-5-8,47.8,39.2,30.2,21.8,18.1,15.5,60,43,28,30.45,30.35,13,2,13,0.00
2013-5-9,55.2,46.3,37.3,22.9,20.3,17.8,51,37,24,30.47,30.30,9,1,9,0.00
2013-5-10,53.9,48.8,43.5,26.2,22.2,18.9,49,35,27,30.32,30.04,13,1,13,0.00
2013-5-11,56.0,49.8,42.6,28.5,24.0,19.3,57,36,30,30.04,29.74,10,1,10,0.00
2013-5-12,48.1,42.0,35.6,31.6,28.3,22.5,72,59,40,29.75,29.56,15,2,15,0.00
2013-5-13,35.5,26.6,18.9,26.7,7.1,1.0,70,43,34,29.76,29.59,13,2,13,0.00
2013-5-14,38.2,30.4,22.9,16.2,12.2,8.2,60,47,38,29.81,29.75,13,1,13,0.00
2013-5-15,44.9,37.0,28.8,20.9,15.2,9.0,53,41,31,29.82,29.74,16,2,17,0.00
2013-5-16,47.7,41.5,34.2,27.5,21.7,18.1,58,45,31,29.77,29.51,12,2,18,0.00
2013-5-17,40.9,33.5,24.3,32.0,28.1,22.5,96,82,57,29.75,29.47,10,1,10,0.03
2013-5-18,29.9,23.7,18.6,22.5,10.0,3.2,93,58,34,30.32,29.75,13,3,13,0.02
2013-5-19,41.2,31.3,20.0,14.4,9.2,5.3,56,40,28,30.71,30.32,12,1,12,0.00
2013-5-20,50.5,41.2,29.7,17.8,14.3,11.3,53,35,22,30.75,30.54,14,2,14,0.00
2013-5-21,57.9,49.5,37.5,20.2,15.7,12.0,44,27,18,30.55,30.24,13,2,13,0.00
2013-5-22,62.9,54.3,45.6,26.8,23.6,17.2,41,31,20,30.24,30.04,14,2,14,0.00
2013-5-23,58.0,51.4,45.9,36.2,31.2,26.2,56,46,41,30.17,30.08,7,1,7,0.00
2013-6-18,76.7,75.5,74.1,43.2,42.8,42.1,32,31,30,29.96,29.95,9,2,9,0.00
2013-6-20,77.5,74.9,72.7,44.1,41.8,37.6,35,31,24,29.86,29.83,6,0,6,0.00
2013-6-21,72.7,62.0,57.0,55.6,50.0,39.7,88,66,35,29.97,29.84,10,0,10,0.02
2013-6-22,70.3,63.2,51.7,48.8,41.7,34.2,78,47,34,29.97,29.78,7,0,8,0.00
2013-6-23,78.9,71.6,66.2,50.9,45.3,37.1,57,40,24,29.76,29.65,9,1,13,0.00
2013-6-24,82.0,76.5,70.6,51.9,47.2,41.0,49,36,24,29.71,29.66,12,2,17,0.00
2013-6-25,86.4,78.6,67.8,58.7,51.4,47.2,57,39,27,29.72,29.66,12,2,19,0.00
2013-6-26,86.8,79.7,66.8,54.8,51.7,49.4,59,38,31,29.76,29.71,7,0,7,0.00
2013-6-27,78.2,71.1,62.0,62.3,57.0,48.1,90,63,37,30.03,29.76,12,0,12,0.03
2013-6-28,74.0,67.6,61.9,59.7,56.0,52.1,82,67,50,30.10,30.03,8,0,8,0.00
2013-6-29,71.7,66.3,60.8,60.1,56.7,51.7,89,72,51,30.07,29.97,5,0,5,0.00
2013-6-30,80.7,71.0,65.4,57.0,52.8,46.0,61,53,38,29.97,29.68,12,1,12,0.00
2013-7-1,75.3,66.0,56.0,53.0,48.3,43.6,86,54,33,29.70,29.49,11,0,12,0.27
2013-7-2,67.4,59.9,48.8,47.1,43.1,39.2,87,55,39,29.75,29.59,15,1,15,0.10
2013-7-3,62.0,58.0,47.7,46.7,42.8,39.1,88,58,49,30.00,29.81,2,0,8,0.00
2013-7-4,62.6,57.7,52.3,46.9,41.1,37.6,74,54,43,30.05,29.97,16,1,16,0.00
2013-7-5,59.9,58.0,55.4,44.7,43.1,40.7,66,58,49,30.08,30.06,8,0,8,0.02
2013-7-6,69.9,61.1,53.2,45.7,43.3,40.1,67,53,37,30.07,29.83,12,1,12,0.00
2013-7-7,68.0,61.7,55.7,51.0,44.2,39.4,65,53,40,29.83,29.60,15,1,15,0.02
2013-7-8,59.0,53.1,0.0,99.9,49.5,45.1,97,80,6,29.81,29.62,14,0,80,0.18
2013-7-9,59.5,52.6,47.3,51.2,48.9,46.5,98,88,66,30.08,29.82,2,0,9,0.05
2013-7-10,54.4,50.5,45.8,50.0,48.4,45.1,98,93,82,30.15,30.05,9,0,9,0.35
2013-7-11,63.3,55.9,49.1,51.7,49.2,45.7,98,80,57,30.19,30.14,18,0,18,0.01
2013-7-12,74.9,64.8,56.3,45.9,41.5,33.0,65,45,23,30.15,30.05,13,2,18,0.00
2013-7-13,79.7,69.9,60.2,44.2,41.2,38.7,51,36,25,30.10,30.05,11,1,12,0.00
2013-7-14,83.5,72.8,61.4,54.8,46.8,40.7,57,41,25,30.18,30.08,9,0,9,0.00
2013-7-15,77.0,69.2,61.2,56.3,52.0,48.5,83,55,39,30.24,30.16,7,0,7,0.01
2013-7-16,63.8,60.3,57.1,55.0,52.4,48.9,90,75,64,30.23,30.17,5,0,13,0.00
2013-7-17,66.8,59.4,54.3,53.5,51.2,49.0,90,75,54,30.19,30.14,6,0,8,0.00
2013-7-18,68.3,59.8,54.3,54.9,50.9,47.3,97,74,49,30.23,30.12,9,0,9,0.59
2013-7-19,55.9,54.4,51.9,55.6,53.9,51.4,99,98,97,30.20,30.14,10,0,13,0.56
2013-7-20,58.5,52.7,49.9,53.9,51.0,49.6,100,94,78,30.21,30.17,9,1,9,0.13
2013-7-21,63.1,55.4,49.8,53.2,50.2,48.3,97,84,64,30.27,30.19,7,0,7,0.00
2013-7-22,68.0,59.5,50.0,53.6,50.4,47.5,95,73,55,30.30,30.20,7,0,9,0.00
2013-7-23,74.2,67.6,55.7,55.6,53.8,50.5,87,62,49,30.21,30.10,5,0,10,0.00
2013-7-24,70.3,63.2,58.8,59.2,56.0,53.8,87,77,64,30.10,30.03,6,0,9,0.00
2013-7-25,70.8,62.1,55.4,56.4,50.1,42.9,87,67,39,30.15,30.04,8,0,8,0.00
2013-7-26,69.9,60.8,53.0,54.0,50.4,47.7,85,69,49,30.28,30.14,7,0,9,0.00
2013-7-27,74.6,65.7,57.3,58.3,55.2,51.8,87,70,53,30.34,30.28,4,0,6,0.00
2013-7-28,83.0,71.5,61.0,59.0,54.1,49.7,74,56,34,30.30,30.12,8,0,8,0.00
2013-7-29,75.5,68.4,61.4,57.1,54.3,50.4,78,61,45,30.19,30.12,11,1,11,0.00
2013-7-30,73.5,64.5,57.9,56.0,52.3,49.1,83,65,45,30.26,30.18,7,0,9,0.00
2013-7-31,61.9,58.3,55.6,53.7,50.2,48.8,81,75,66,30.25,30.22,5,0,5,0.00
2013-8-1,79.8,74.7,60.5,54.7,48.5,45.7,72,41,33,30.11,29.89,8,0,8,0.00
2013-8-2,79.8,72.6,65.9,53.0,46.5,41.6,60,40,27,29.92,29.78,11,0,11,0.00
2013-8-3,78.3,69.4,64.8,48.6,42.4,34.1,55,38,29,29.79,29.70,15,1,15,0.00
2013-8-4,70.3,63.3,57.8,48.3,45.4,43.0,64,52,39,29.97,29.79,7,0,11,0.00
2013-8-5,72.1,62.3,52.8,52.9,47.3,42.8,86,61,37,30.01,29.95,9,0,9,0.00
2013-8-6,76.7,68.3,60.9,47.9,43.4,39.8,61,42,28,30.02,29.88,19,1,19,0.00
2013-8-7,81.1,71.1,63.3,49.5,45.5,40.9,50,41,26,29.89,29.67,12,1,12,0.00
2013-8-8,77.1,68.8,61.3,48.6,42.5,38.2,56,40,25,29.73,29.68,8,0,8,0.00
2013-8-9,67.3,63.0,58.4,48.8,43.9,39.4,69,50,39,29.77,29.70,11,0,11,0.01
2013-8-10,63.4,59.5,55.3,51.2,47.2,44.0,77,64,52,30.08,29.76,8,0,8,0.00
2013-8-11,74.3,64.0,54.1,49.2,46.1,43.7,70,53,38,30.14,30.02,12,0,12,0.00
2013-8-12,72.8,62.8,53.6,58.2,53.5,48.3,88,72,56,30.12,30.04,9,0,9,0.00
2013-8-13,76.7,65.4,55.7,59.8,56.2,53.2,93,73,54,30.06,29.90,4,0,6,0.00
2013-8-14,69.9,62.2,57.1,58.3,54.6,51.1,92,77,60,29.96,29.88,3,0,7,0.01
2013-8-15,60.7,58.0,54.0,57.0,54.2,49.1,96,87,74,29.94,29.77,11,0,11,0.30
2013-8-16,65.0,57.6,52.2,56.2,53.1,48.0,98,86,67,29.79,29.72,9,0,11,0.01
2013-8-17,70.2,61.6,55.0,55.5,50.7,46.4,81,68,49,29.73,29.57,10,0,10,0.00
2013-8-18,65.6,58.4,52.3,56.0,50.7,47.1,88,76,56,29.64,29.57,7,0,7,0.03
2013-8-19,61.1,55.3,50.1,52.5,49.3,44.2,94,81,56,29.74,29.64,9,0,9,0.10
2013-8-20,50.5,48.4,46.0,50.0,47.7,45.2,99,97,91,29.88,29.73,10,0,10,1.07
2013-8-21,58.1,49.7,43.6,48.5,43.4,39.1,99,81,52,29.92,29.81,7,0,7,0.01
2013-8-22,62.0,54.5,49.6,50.4,44.4,38.5,96,69,56,29.82,29.66,6,0,6,0.15
2013-8-23,51.5,49.2,46.5,51.2,48.0,42.0,100,96,81,29.79,29.60,14,1,14,0.63
2013-8-24,55.9,47.5,42.0,42.5,37.3,32.7,89,69,45,30.03,29.78,12,1,12,0.00
2013-8-25,57.2,48.0,39.3,35.8,32.7,30.4,74,57,38,30.03,29.86,12,1,12,0.00
2013-8-26,60.5,51.9,44.3,35.9,33.3,31.0,62,50,35,29.93,29.87,12,2,12,0.00
2013-8-27,59.9,53.3,47.1,45.6,38.8,34.1,73,58,51,29.90,29.74,9,1,9,0.00
2013-8-28,55.1,49.4,45.6,46.1,44.2,39.5,97,83,56,29.81,29.74,6,0,6,0.03
2013-8-29,51.6,49.5,47.0,49.1,46.6,43.8,98,90,78,29.95,29.76,4,0,7,0.10
2013-8-30,52.3,47.1,43.4,47.4,43.5,36.6,99,88,61,30.07,29.95,7,0,7,0.05
2013-8-31,46.9,41.7,37.6,36.8,31.0,19.1,80,67,35,30.09,30.03,8,1,8,0.00
2013-9-1,48.4,44.1,40.3,39.8,31.7,23.6,80,62,48,30.03,29.78,12,1,12,0.00
2013-9-2,57.2,50.3,44.0,51.3,46.7,39.2,97,88,75,29.78,29.49,10,1,11,0.28
2013-9-3,65.8,57.6,50.9,51.7,46.9,44.4,93,68,52,29.53,29.29,17,1,17,0.12
2013-9-4,56.2,50.8,48.0,49.4,45.8,42.8,94,83,71,29.76,29.43,10,1,10,0.04
2013-9-5,55.7,48.3,41.0,47.1,43.2,39.1,98,83,65,30.07,29.76,7,0,7,0.00
2013-9-6,53.9,49.4,46.7,45.4,41.8,38.2,91,76,58,30.10,29.56,14,1,14,0.07
2013-9-7,54.4,50.0,43.5,50.3,45.9,42.4,98,86,76,29.77,29.57,8,0,8,0.01
2013-9-8,53.3,48.6,44.1,48.2,46.7,43.5,100,93,77,29.88,29.56,13,1,13,0.24
2013-9-9,58.1,50.1,43.7,47.7,44.6,40.7,99,83,63,29.92,29.79,9,1,9,0.01
2013-9-10,64.4,56.6,51.7,46.6,42.5,39.7,73,60,42,29.80,29.74,11,1,11,0.00
2013-9-11,55.9,52.2,45.9,46.7,43.0,40.9,97,72,58,29.80,29.64,10,1,10,0.26
2013-9-12,56.4,50.2,40.4,47.2,43.6,40.0,99,79,63,30.04,29.89,4,0,8,0.01
2013-9-13,53.7,48.1,44.8,47.6,43.0,39.5,93,83,67,30.04,29.95,6,0,6,0.04
2013-9-14,49.2,44.6,39.8,45.5,41.3,35.0,100,89,66,30.17,30.04,6,0,6,0.14
2013-9-15,49.9,42.2,34.6,38.5,33.5,29.0,92,73,49,30.23,30.08,18,1,18,0.00
2013-9-16,50.7,42.8,37.8,30.6,27.4,23.9,62,55,39,30.08,29.78,19,3,19,0.00
2013-9-17,39.6,34.8,30.6,27.7,24.4,21.4,78,66,56,29.79,29.74,13,2,20,0.00
2013-9-18,33.0,30.1,28.1,30.2,28.1,26.3,97,92,77,29.86,29.77,4,0,5,0.03
2013-9-19,36.4,30.8,28.0,28.6,26.4,24.3,94,84,70,29.85,29.70,7,0,7,0.03
2013-9-20,32.9,28.4,25.1,27.6,25.2,21.9,95,88,75,29.71,29.33,9,0,9,0.01
2013-9-21,37.6,31.3,27.3,24.6,21.5,19.1,78,67,54,29.34,29.25,11,1,11,0.00
2013-9-22,29.9,28.2,25.8,27.4,24.6,21.5,96,87,76,29.63,29.34,12,0,12,0.01
2013-9-23,33.7,28.2,24.5,28.6,24.9,22.1,96,88,74,30.01,29.63,5,0,5,0.04
2013-9-24,37.1,31.3,26.6,26.3,24.1,21.0,92,75,61,30.16,29.88,13,1,13,0.02
2013-9-25,52.7,44.8,37.1,38.5,32.8,24.6,78,63,52,29.88,29.51,12,2,12,0.02
2013-9-26,44.9,40.9,36.2,39.1,36.6,34.4,94,85,76,29.74,29.43,11,1,11,0.00
2013-9-27,54.4,46.9,42.3,37.6,34.8,33.2,76,63,47,29.43,29.26,14,2,14,0.00
2013-9-28,43.8,39.7,36.8,38.0,35.1,33.1,95,84,71,29.43,29.34,10,0,10,0.09
2013-9-29,42.4,38.0,36.0,37.9,33.9,29.6,100,85,70,29.73,29.43,18,2,18,0.01
2013-9-30,37.7,35.5,31.5,29.9,28.5,27.5,88,75,69,29.95,29.73,11,1,11,0.00
2013-10-1,34.6,31.2,28.1,32.4,29.9,27.1,97,95,88,30.05,29.95,4,0,4,0.01
2013-10-2,44.2,38.5,32.7,33.9,32.1,30.0,94,78,65,30.05,29.95,7,0,7,0.01
2013-10-3,48.4,43.5,39.7,34.4,32.2,30.6,80,65,54,29.96,29.70,8,0,8,0.00
2013-10-4,42.1,35.9,31.7,34.1,31.5,30.4,96,84,67,29.94,29.69,5,0,5,0.00
2013-10-5,41.1,34.4,30.1,33.9,31.3,29.1,98,89,74,29.95,29.79,8,1,8,0.00
2013-10-6,41.9,36.7,30.4,32.5,30.0,28.0,96,77,66,29.81,29.76,7,1,7,0.00
2013-10-7,32.9,31.0,29.8,31.7,30.3,29.0,98,97,94,29.98,29.81,9,0,9,0.01
2013-10-8,45.8,40.6,32.9,35.3,31.0,25.7,94,69,57,29.84,29.08,19,4,19,0.02
2013-10-9,39.5,33.2,31.1,34.9,32.2,30.6,98,96,80,29.79,29.08,12,2,12,0.07
2013-10-10,36.0,31.4,26.6,32.8,29.1,25.6,98,91,73,29.83,29.75,7,1,7,0.06
2013-10-11,43.7,38.8,34.5,33.3,31.0,28.0,88,74,63,29.95,29.80,7,1,7,0.07
2013-10-12,49.7,44.2,40.0,34.4,32.3,31.1,73,63,53,29.91,29.78,12,3,12,0.00
2013-10-13,47.2,44.6,35.2,35.3,30.9,29.1,96,59,52,29.79,29.48,20,4,20,0.06
2013-10-14,41.8,38.4,35.2,36.8,34.7,32.1,98,87,75,30.03,29.65,12,1,14,0.04
2013-10-15,40.6,40.4,40.2,35.6,35.1,34.8,83,81,80,30.04,30.02,4,0,4,0.00